TimeMDT,TemperatureF,Dew PointF,Humidity,Sea Level PressureIn,VisibilityMPH,Wind Direction,Wind SpeedMPH,Gust SpeedMPH,PrecipitationIn,Events,Conditions,WindDirDegrees,DateUTC
12:00 AM,44.6,44.6,100,29.96,4.0,Calm,Calm,-,0.00,Rain,Light Rain,0,2012-10-29 06:00:00
12:19 AM,44.6,44.6,100,29.96,4.0,Calm,Calm,-,0.00,Rain,Light Rain,0,2012-10-29 06:19:00
12:53 AM,45.0,44.1,97,30.00,4.0,Calm,Calm,-,0.01,Rain,Light Rain,0,2012-10-29 06:53:00
1:11 AM,44.6,42.8,93,29.96,1.8,Calm,Calm,-,0.01,Rain,Light Rain,0,2012-10-29 07:11:00
1:19 AM,44.6,44.6,100,29.96,3.0,Calm,Calm,-,0.01,Rain,Light Rain,0,2012-10-29 07:19:00
1:32 AM,44.6,44.6,100,29.96,3.0,Calm,Calm,-,0.01,Rain,Light Rain,0,2012-10-29 07:32:00
1:35 AM,44.6,44.6,100,29.95,2.5,Calm,Calm,-,0.01,Rain,Light Rain,0,2012-10-29 07:35:00
1:43 AM,44.6,44.6,100,29.95,1.2,Calm,Calm,-,0.01,Rain,Light Rain,0,2012-10-29 07:43:00
1:45 AM,44.6,44.6,100,29.95,1.0,Calm,Calm,-,0.01,Rain,Light Rain,0,2012-10-29 07:45:00
1:53 AM,44.1,44.1,100,29.99,0.8,Calm,Calm,-,0.01,Rain,Light Rain,0,2012-10-29 07:53:00
2:15 AM,44.6,42.8,93,29.94,0.2,Calm,Calm,-,0.00,Fog,Fog,0,2012-10-29 08:15:00
2:24 AM,44.6,44.6,100,29.94,0.5,SSW,3.5,-,0.00,Fog,Fog,200,2012-10-29 08:24:00
2:36 AM,44.6,44.6,100,29.94,0.5,Calm,Calm,-,N/A,Fog,Fog,0,2012-10-29 08:36:00
2:38 AM,44.6,42.8,93,29.94,0.5,Calm,Calm,-,0.00,Fog,Fog,0,2012-10-29 08:38:00
2:49 AM,44.6,44.6,100,29.94,0.2,Calm,Calm,-,0.00,Fog-Rain,Light Rain,0,2012-10-29 08:49:00
2:53 AM,44.1,44.1,100,29.97,0.2,ENE,3.5,-,0.00,Fog-Rain,Light Rain,60,2012-10-29 08:53:00
3:16 AM,44.6,44.6,100,29.93,0.5,Calm,Calm,-,0.00,Fog-Rain,Light Rain,0,2012-10-29 09:16:00
3:51 AM,44.6,44.6,100,29.92,0.8,Calm,Calm,-,0.00,,Overcast,0,2012-10-29 09:51:00
3:53 AM,45.0,44.1,97,29.94,0.8,Calm,Calm,-,0.00,,Overcast,0,2012-10-29 09:53:00
3:59 AM,44.6,44.6,100,29.92,0.8,Calm,Calm,-,N/A,,Overcast,0,2012-10-29 09:59:00
4:18 AM,44.6,44.6,100,29.92,0.8,Calm,Calm,-,0.00,,Overcast,0,2012-10-29 10:18:00
4:26 AM,44.6,44.6,100,29.91,0.8,Calm,Calm,-,N/A,,Overcast,0,2012-10-29 10:26:00
4:53 AM,45.0,44.1,97,29.93,0.8,ESE,3.5,-,0.00,Rain,Light Rain,120,2012-10-29 10:53:00
4:55 AM,44.6,44.6,100,29.91,1.0,ESE,3.5,-,0.00,Rain,Light Rain,110,2012-10-29 10:55:00
5:07 AM,44.6,44.6,100,29.91,1.0,ESE,3.5,-,0.00,Rain,Light Rain,120,2012-10-29 11:07:00
5:12 AM,44.6,44.6,100,29.91,1.5,ESE,4.6,-,0.00,Rain,Light Rain,120,2012-10-29 11:12:00
5:16 AM,44.6,44.6,100,29.91,3.0,ESE,5.8,-,0.00,Rain,Light Rain,120,2012-10-29 11:16:00
5:53 AM,46.0,45.0,96,29.93,10.0,ESE,6.9,-,0.01,Rain,Light Rain,120,2012-10-29 11:53:00
6:53 AM,46.0,45.0,96,29.92,9.0,SE,11.5,-,0.00,Rain,Light Rain,130,2012-10-29 12:53:00
7:53 AM,48.0,45.0,89,29.92,10.0,SE,10.4,-,0.00,,Overcast,130,2012-10-29 13:53:00
8:53 AM,48.9,46.0,90,29.94,10.0,ESE,10.4,-,0.00,Rain,Light Rain,120,2012-10-29 14:53:00
9:53 AM,50.0,46.9,89,29.95,10.0,SSE,12.7,-,0.00,,Overcast,150,2012-10-29 15:53:00
10:53 AM,51.1,48.0,89,29.96,10.0,SSE,9.2,-,N/A,,Overcast,150,2012-10-29 16:53:00
11:53 AM,51.1,46.9,86,29.98,10.0,SSE,11.5,-,0.00,Rain,Light Rain,160,2012-10-29 17:53:00
12:53 PM,53.1,46.9,80,29.98,10.0,SSE,12.7,-,0.01,,Overcast,150,2012-10-29 18:53:00
1:53 PM,55.4,48.2,77,29.95,10.0,SSE,11.5,-,N/A,,Overcast,150,2012-10-29 19:53:00
2:53 PM,57.0,48.0,72,29.96,10.0,East,5.8,-,0.01,,Overcast,90,2012-10-29 20:53:00
3:53 PM,55.0,46.9,74,30.01,9.0,WSW,13.8,-,0.01,Rain,Light Rain,250,2012-10-29 21:53:00
4:53 PM,57.0,44.1,62,30.01,10.0,SW,3.5,-,0.02,,Mostly Cloudy,220,2012-10-29 22:53:00
5:53 PM,54.0,44.1,69,30.03,10.0,WNW,4.6,-,N/A,,Mostly Cloudy,290,2012-10-29 23:53:00
6:53 PM,52.0,44.1,74,30.05,10.0,NNE,5.8,-,N/A,,Mostly Cloudy,30,2012-10-30 00:53:00
7:53 PM,48.9,45.0,86,30.08,10.0,SSW,4.6,-,N/A,,Mostly Cloudy,200,2012-10-30 01:53:00
8:53 PM,51.1,39.9,66,30.09,10.0,SE,4.6,-,N/A,,Overcast,140,2012-10-30 02:53:00
9:53 PM,48.0,39.9,74,30.10,10.0,ESE,6.9,-,N/A,,Scattered Clouds,120,2012-10-30 03:53:00
10:53 PM,50.0,39.9,68,30.11,10.0,South,4.6,-,N/A,,Mostly Cloudy,180,2012-10-30 04:53:00
11:53 PM,51.1,39.0,63,30.12,10.0,SE,3.5,-,N/A,,Overcast,140,2012-10-30 05:53:00